TimeEDT,TemperatureF,Dew PointF,Humidity,Sea Level PressureIn,VisibilityMPH,Wind Direction,Wind SpeedMPH,Gust SpeedMPH,PrecipitationIn,Events,Conditions,WindDirDegrees,DateUTC
12:56 AM,52.0,48.0,86,30.15,10.0,Calm,Calm,-,N/A,,Clear,0,2012-10-22 04:56:00
1:56 AM,51.1,48.0,89,30.14,10.0,Calm,Calm,-,N/A,,Clear,0,2012-10-22 05:56:00
2:56 AM,50.0,46.9,89,30.15,10.0,Calm,Calm,-,N/A,,Clear,0,2012-10-22 06:56:00
3:56 AM,48.9,46.9,93,30.15,10.0,Calm,Calm,-,N/A,,Clear,0,2012-10-22 07:56:00
4:56 AM,48.9,46.0,90,30.15,10.0,NNW,3.5,-,N/A,,Clear,340,2012-10-22 08:56:00
5:56 AM,48.0,46.0,93,30.16,10.0,Calm,Calm,-,N/A,,Clear,0,2012-10-22 09:56:00
6:56 AM,44.6,44.4,99,30.19,10.0,NNW,4.6,-,N/A,,Partly Cloudy,340,2012-10-22 10:56:00
7:56 AM,46.8,44.1,90,30.21,10.0,Calm,Calm,-,N/A,,Scattered Clouds,0,2012-10-22 11:56:00
8:56 AM,55.9,48.9,77,30.22,10.0,Calm,Calm,-,N/A,,Scattered Clouds,0,2012-10-22 12:56:00
9:56 AM,63.0,46.9,56,30.23,10.0,NE,3.5,-,N/A,,Scattered Clouds,50,2012-10-22 13:56:00
10:56 AM,66.2,46.0,48,30.23,10.0,NE,10.4,-,N/A,,Mostly Cloudy,40,2012-10-22 14:56:00
11:56 AM,68.0,45.0,43,30.23,10.0,NE,9.2,-,N/A,,Mostly Cloudy,50,2012-10-22 15:56:00
12:56 PM,70.7,44.1,38,30.21,10.0,NE,6.9,-,N/A,,Scattered Clouds,40,2012-10-22 16:56:00
1:56 PM,71.6,44.1,37,30.18,10.0,ENE,8.1,-,N/A,,Partly Cloudy,60,2012-10-22 17:56:00
2:56 PM,75.9,45.0,33,30.15,10.0,NNE,9.2,-,N/A,,Partly Cloudy,20,2012-10-22 18:56:00
3:56 PM,73.0,45.0,37,30.14,10.0,NNE,3.5,-,N/A,,Partly Cloudy,30,2012-10-22 19:56:00
4:56 PM,75.0,45.0,34,30.14,10.0,NE,5.8,-,N/A,,Partly Cloudy,50,2012-10-22 20:56:00
5:56 PM,71.1,46.9,42,30.14,10.0,East,6.9,-,N/A,,Partly Cloudy,100,2012-10-22 21:56:00
6:56 PM,64.9,50.0,58,30.17,10.0,ESE,5.8,-,N/A,,Partly Cloudy,110,2012-10-22 22:56:00
7:56 PM,64.0,48.0,56,30.17,10.0,East,4.6,-,N/A,,Clear,100,2012-10-22 23:56:00
8:56 PM,55.9,48.9,77,30.18,10.0,Calm,Calm,-,N/A,,Clear,0,2012-10-23 00:56:00
9:56 PM,55.0,50.0,83,30.19,10.0,Calm,Calm,-,N/A,,Clear,0,2012-10-23 01:56:00
10:56 PM,55.0,50.0,83,30.20,10.0,Calm,Calm,-,N/A,,Clear,0,2012-10-23 02:56:00
11:56 PM,53.1,51.1,93,30.20,10.0,Calm,Calm,-,N/A,,Clear,0,2012-10-23 03:56:00